Regional Weather Roundup
Issued by NWS Newport/Morehead, NC

Current Version | Previous Version | Graphics & Text | Print | Product List | Glossary Off
Versions: 1 2 3 4 5 6 7 8 9 10 11 12 13 14 15 16 17 18 19 20 21 22 23 24 25 26 27 28 29 30 31 32 33 34 35 36 37 38 39 40 41 42 43 44 45 46 47 48 49 50

000
ASUS42 KMHX 011810
RWRMHX
WEATHER ROUNDUP FOR EASTERN NORTH CAROLINA
NATIONAL WEATHER SERVICE NEWPORT/MOREHEAD CITY NC
200 PM EDT MON SEP 01 2014

NOTE: "FAIR" INDICATES FEW OR NO CLOUDS BELOW 12,000 FEET
WITH NO SIGNIFICANT WEATHER AND/OR OBSTRUCTIONS TO VISIBILITY

NCZ015>017-031-032-045>047-102-103-011900-
NORTH COAST

CITY           SKY/WX    TMP DP  RH WIND       PRES   REMARKS
EDENTON        MOSUNNY   90  75  61 SW6       30.05F
ELIZABETH CITY MOSUNNY   90  76  63 SW10      30.04F HX 101
KITTY HAWK     PTCLDY    91  70  51 S5        30.05F
MANTEO         MOSUNNY   86  76  71 S13       30.06F

$$

NCZ045>047-081-094-103-104-011900-
CENTRAL COAST

CITY           SKY/WX    TMP DP  RH WIND       PRES   REMARKS
FRISCO         MOSUNNY   85  77  77 SW12      30.09F
SWANQUARTER      N/A     90 N/A N/A S7        30.03F

$$

NCZ095-097-098-100-101-011900-
SOUTHERN COAST

CITY           SKY/WX    TMP DP  RH WIND       PRES   REMARKS
BEAUFORT       MOSUNNY   86  77  74 S13       30.09F
CEDAR ISLAND     N/A     86 N/A N/A NW3       30.12S
JACKSONVILLE   MOSUNNY   91  75  59 SE7       30.07F HX 101
NEWPORT        NOT AVBL
PINEY ISLAND   PTCLDY    91  75  59 CALM      30.07F HX 101
WILMINGTON     MOSUNNY   89  77  67 VRB7      30.08F HX 101


$$

NCZ011>013-027>030-043-044-078>080-089-090>093-098-011900-
COASTAL PLAIN

CITY           SKY/WX    TMP DP  RH WIND       PRES   REMARKS
AHOSKIE        MOSUNNY   88  75  65 CALM      30.05F
CLINTON        PTSUNNY   92  74  55 CALM      30.07F HX 102
ELIZABETHTOWN  PTSUNNY   91  73  54 CALM      30.08F
GOLDSBORO      MOSUNNY   92  78  64 VRB5      30.05F HX 107
GREENVILLE     MOSUNNY   91  75  59 W8        30.07F HX 102
HAVELOCK       MOSUNNY   92  72  51 SW6       30.08F
KENANSVILLE    MOSUNNY   92  71  50 SW3       30.08F
KINSTON        MOSUNNY   91  72  52 SW6       30.07F
NEW BERN       SUNNY     93  73  52 W3        30.08F HX 102
RICHLANDS      MOSUNNY   93  72  49 SW7       30.07F HX 100
ROANOKE RAPIDS NOT AVBL
ROCKY MOUNT    MOSUNNY   91  70  49 W7        30.07S
WASHINGTON     SUNNY     90  73  57 W7        30.06F
WHITEVILLE     MOSUNNY   91  74  58 SW3       30.08F HX 100

$$

AMZ130-135-150-152-154-156-158-170-250-252-270-ANZ085-086-088-633-658-670-011900-
MARINE OBSERVATIONS

STATION/POSITION TIME  TEMP    WIND        PRES    WAVE   SWELL
                       AIR SEA DIR/SP/G            HT/PER HT/PER
                 (UTC) (F)     (DEG/KT/KT) (MB)    (FT/S) (FT/S)
CHESAPEAKE LIGHT 1700   81     190/ 14/ 15 1017.7
BUOY 44014       1800   79 78  190/ 10/ 12 1017.5    3/ 8   2/ 8
DUCK             1800   85 75  200/  8/ 10 1017.2
2E DUCK          1800                        N/A     2/ 9   2/12
OREGON INLET     1800   83 82  180/ 14/ 16 1018.3
BUOY 44095       1800      80                N/A     2/ 8   2/11
20E OREGON INLET NOT AVBL
HATTERAS CG      1800   85 83  210/  8/ 12 1019.4
DIAMOND BUOY     1800   82     200/ 12/ 14 1018.9    3/10   2/10
CAPE LOOKOUT     1700   83     190/  8/ 11 1019.2
BEAUFORT LAB     1800   83 83  200/ 10/ 13 1018.4
30 SE NEW RIVER  1700   82 84  240/  4/  6 1019.6
5 SE WRIGHTSVILL 1700   80 83  190/ 10/ 12   N/A
BUOY 41002       1716   82 85  200/  6/  8 1021.1    3/ 8   3/ 8
BUOY 41004       1800   84 86  150/  4/  6 1019.1    2/ 8   2/ 8

$$


USA.gov is the U.S. government's official web portal to all federal, state and local government web resources and services.